User: anonymous   Login
Location: Caltech
(34.1382°N, 118.1253°W)
Time: 04:23:27
(UTC-07:00)
Language:

Cosmos 2237 Rocket - Orbit

View from above orbital plane
View from above orbital plane
View from above satellite
View from above satellite

Ground track
Ground track

The orbit data is extracted from the following two-line orbital elements,

1 22566U 93016B   16178.18422144 -.00000190  00000-0 -73780-4 0  9990
2 22566  71.0080  94.1869 0011999 307.4951  52.5080 14.14925381200914
Epoch (UTC): 26 June 2016 04:25:16
Eccentricity: 0.0011999
inclination: 71.0080°
perigee height: 834 km
apogee height: 851 km
right ascension of ascending node: 94.1869°
argument of perigee: 307.4951°
revolutions per day: 14.14925381
mean anomaly at epoch: 52.5080°
orbit number at epoch: 20091

The dashed part of the orbit path shows where the satellite is in the earth's shadow,  

DLR